Willimantic, CT

10:18 PM EST on December 14, 2019 (GMT -0500)
Windham

Weather History for KIJD - October, 2019

Change the Weather History Date:

Saturday, October 12, 2019

  Actual Average Record
Temperature  
Mean Temperature 52 °F -  
Max Temperature 59 °F 63 °F 87 °F (1954)
Min Temperature 46 °F 37 °F 19 °F (1964)
Degree Days  
Heating Degree Days 12    
Growing Degree Days 2 (Base 50)    
Moisture  
Dew Point 48 °F    
Average Humidity 84    
Maximum Humidity 97    
Minimum Humidity 72    
Precipitation  
Precipitation 0.00 in - - ()
Sea Level Pressure  
Sea Level Pressure 29.98 in    
Wind  
Wind Speed 8 mph ()    
Max Wind Speed 14 mph    
Max Gust Speed 20 mph    
Visibility 10.0 miles    
Events      
Averages and records for this station are not official NWS values.
T = Trace of Precipitation, MM = Missing Value Source: Averaged Metar Reports

Daily Weather History Graph

Daily Weather History Graph

Search for Another Location

Airport or City:

Astronomy

Oct. 12, 2019 Rise Set
Actual Time 6:57 AM EDT 6:12 PM EDT
Civil Twilight 6:29 AM EDT 6:40 PM EDT
Nautical Twilight 5:57 AM EDT 7:12 PM EDT
Astronomical Twilight 5:24 AM EDT 7:44 PM EDT
Moon 6:08 PM EDT (10/12) 5:29 AM EDT (10/12)
Length of Visible Light 12h 11m
Length of Day
11h 15m
Waxing Gibbous, 99% of the Moon is Illuminated
Oct 12
Waxing Gibbous
Oct 13
Full
Oct 21
Last Quarter
Oct 27
New
Nov 4
First Quarter

Hourly Weather History & Observations

Time (EDT) Temp. Dew Point Humidity Pressure Visibility Wind Dir Wind Speed Gust Speed Precip Events Conditions
12:52 AM 54.0 °F 48.0 °F 80% 30.03 in 10.0 mi NNE 10.4 mph - N/A   Overcast
1:52 AM 53.1 °F 48.0 °F 83% 30.01 in 10.0 mi NNE 12.7 mph 19.6 mph N/A   Overcast
2:52 AM 53.1 °F 48.0 °F 83% 30.00 in 10.0 mi NNE 10.4 mph - N/A   Overcast
3:43 AM 53.1 °F 48.0 °F 83% 29.98 in 10.0 mi NNE 12.7 mph - N/A   Overcast
3:52 AM 53.1 °F 48.0 °F 83% 29.98 in 10.0 mi NNE 12.7 mph - N/A   Overcast
4:52 AM 52.0 °F 48.9 °F 89% 29.98 in 10.0 mi North 12.7 mph - N/A   Overcast
5:52 AM 52.0 °F 48.0 °F 86% 29.96 in 10.0 mi NNE 10.4 mph - N/A   Overcast
6:52 AM 52.0 °F 48.0 °F 86% 29.96 in 10.0 mi NNE 8.1 mph - N/A   Overcast
7:52 AM 52.0 °F 48.0 °F 86% 29.98 in 10.0 mi NNE 8.1 mph - N/A   Overcast
8:52 AM 53.1 °F 48.0 °F 83% 29.98 in 10.0 mi NNE 9.2 mph 17.3 mph N/A   Overcast
9:00 AM 53.1 °F 48.0 °F 83% 29.98 in 10.0 mi NNE 11.5 mph - N/A   Overcast
9:52 AM 54.0 °F 48.0 °F 80% 29.98 in 10.0 mi NNE 13.8 mph - N/A   Overcast
10:52 AM 55.9 °F 48.0 °F 75% 29.98 in 10.0 mi NNE 10.4 mph - N/A   Overcast
11:52 AM 57.0 °F 48.9 °F 74% 29.97 in 10.0 mi North 6.9 mph - N/A   Overcast
12:52 PM 57.9 °F 48.9 °F 72% 29.98 in 10.0 mi NNE 9.2 mph - N/A   Overcast
1:52 PM 57.9 °F 48.9 °F 72% 29.95 in 10.0 mi NNE 9.2 mph - N/A   Overcast
2:52 PM 57.9 °F 50.0 °F 75% 29.94 in 10.0 mi NNE 8.1 mph - N/A   Overcast
3:52 PM 59.0 °F 50.0 °F 72% 29.94 in 10.0 mi NE 6.9 mph - N/A   Overcast
4:52 PM 57.9 °F 50.0 °F 75% 29.94 in 10.0 mi NNE 4.6 mph - N/A   Overcast
5:52 PM 57.9 °F 51.1 °F 78% 29.95 in 10.0 mi ENE 4.6 mph - N/A   Overcast
6:28 PM 55.9 °F 50.0 °F 80% 29.95 in 10.0 mi Calm Calm - N/A   Scattered Clouds
6:52 PM 54.0 °F 51.1 °F 90% 29.96 in 10.0 mi Calm Calm - N/A   Clear
7:52 PM 51.1 °F 48.9 °F 92% 29.98 in 10.0 mi Calm Calm - N/A   Clear
8:52 PM 48.9 °F 48.0 °F 97% 29.98 in 10.0 mi Calm Calm - N/A   Clear
9:52 PM 48.9 °F 46.9 °F 93% 29.99 in 10.0 mi Calm Calm - N/A   Clear
10:52 PM 46.9 °F 46.0 °F 97% 30.01 in 10.0 mi Calm Calm - N/A   Clear
11:43 PM 46.0 °F 45.0 °F 96% 30.01 in 10.0 mi Calm Calm - N/A   Scattered Clouds
11:52 PM 46.9 °F 46.0 °F 97% 30.00 in 10.0 mi Calm Calm - N/A   Mostly Cloudy